Home   Weather   Keflavík   Past weeks

Flag for Iceland Past Weather in Keflavík, Iceland — Yesterday and Last 2 Weeks

Now
43 °F

Partly cloudy.


Feels Like: 36 °F
Forecast: 40 / 45 °F
Wind: 14 mph from Northeast

Location: Keflavikurflugvollur

Current Time: Dec 10, 2016 at 3:11:36 am

Latest Report: Dec 10, 2016 at 2:30 am


Visibility: N/A

Pressure: 29.15 "Hg

Humidity: 87%

Dew Point: 39 °F

Location of KeflavíkLocation

Past Weather in Keflavík — Graph

°F

Keflavík Temperature Yesterday

Maximum temperature yesterday: 45 °F (at 3:00 pm)
Minimum temperature yesterday: 41 °F (at 12:30 am)
Average temperature yesterday: 43 °F

High & Low Weather Summary for the Past Weeks

 TemperatureHumidityPressure
High46 °F (Dec 1, 1:30 pm)100% (Nov 26, 9:00 pm)30.18 "Hg (Nov 26, 9:00 pm)
Low32 °F (Nov 26, 8:00 am)65% (Nov 25, 10:30 am)29.15 "Hg (Dec 9, 7:00 pm)
Average42 °F91%29.77 "Hg
* Reported Nov 25 2:00 am — Dec 10 2:00 am, Keflavík, Weather by CustomWeather, © 2016

Note: Actual official high and low records may vary slightly from our data, if they occured in-between our weather recording intervals... More about our weather records

Advertising

Keflavík Weather History for the Previous 24 Hours

Scroll right to see more
 ConditionsComfort  
Time TempWeatherWind HumidityBarometerVisibility
2:00 am
Sat, Dec 10
43 °FPartly cloudy.13 mph81%29.15 "HgN/A
1:30 am45 °FPartly cloudy.14 mph76%29.15 "HgN/A
1:00 am43 °FPassing clouds.13 mph81%29.15 "HgN/A
12:30 am43 °FPartly cloudy.12 mph81%29.15 "HgN/A
12:00 am43 °FPassing clouds.14 mph87%29.15 "HgN/A
11:30 pm
Fri, Dec 9
43 °FPassing clouds.14 mph87%29.15 "HgN/A
11:00 pm43 °FClear.16 mph81%29.15 "Hg10 mi
10:30 pm41 °FClear.15 mph87%29.15 "Hg10 mi
10:00 pm41 °FClear.16 mph87%29.15 "Hg10 mi
9:30 pm43 °FClear.16 mph81%29.15 "Hg10 mi
9:00 pm43 °FClear.17 mph87%29.15 "Hg10 mi
8:30 pm43 °FClear.17 mph87%29.15 "Hg10 mi
8:00 pm43 °FClear.17 mph87%29.15 "Hg10 mi
7:30 pm43 °FClear.20 mph87%29.15 "Hg10 mi
7:00 pm43 °FMostly cloudy.21 mph87%29.15 "HgN/A
6:30 pm43 °FLight rain. Mostly cloudy.15 mph87%29.18 "HgN/A
6:00 pm45 °FLight rain. Mostly cloudy.16 mph81%29.18 "HgN/A
5:30 pm43 °FMostly cloudy.18 mph87%29.18 "HgN/A
5:00 pm43 °FLight rain. Overcast.16 mph87%29.21 "HgN/A
4:30 pm43 °FMostly cloudy.15 mph81%29.21 "HgN/A
4:00 pm43 °FLight rain. Partly cloudy.21 mph81%29.21 "HgN/A
3:30 pm45 °FBroken clouds.17 mph71%29.24 "HgN/A
3:00 pm45 °FScattered showers. Broken clouds.16 mph71%29.24 "HgN/A
2:30 pm43 °FScattered showers. Partly sunny.13 mph81%29.27 "HgN/A
2:00 pm43 °FLight rain. Broken clouds.15 mph81%29.27 "HgN/A
1:30 pm43 °FLight rain. Mostly cloudy.18 mph81%29.30 "HgN/A
1:00 pm43 °FLight rain. Broken clouds.20 mph81%29.30 "HgN/A
12:30 pm43 °FPartly sunny.20 mph81%29.33 "HgN/A
12:00 pm43 °FPartly sunny.16 mph81%29.33 "HgN/A
11:30 am43 °FBroken clouds.22 mph81%29.36 "HgN/A
11:00 am43 °FPassing clouds.18 mph81%29.36 "HgN/A
10:30 am43 °FPassing clouds.16 mph81%29.36 "HgN/A
10:00 am41 °FPassing clouds.12 mph87%29.39 "HgN/A
9:30 am41 °FPartly cloudy.9 mph93%29.39 "HgN/A
9:00 am41 °FPassing clouds.9 mph93%29.42 "HgN/A
8:30 am41 °FPassing clouds.9 mph93%29.42 "HgN/A
8:00 am43 °FPartly cloudy.12 mph87%29.42 "HgN/A
7:30 am43 °FPartly cloudy.12 mph93%29.42 "HgN/A
7:00 am43 °FPartly cloudy.17 mph93%29.45 "HgN/A
6:30 am43 °FPartly cloudy.12 mph93%29.45 "HgN/A
6:00 am43 °FPartly cloudy.9 mph93%29.45 "HgN/A
5:30 am43 °FPartly cloudy.9 mph93%29.47 "HgN/A
4:30 am43 °FPartly cloudy.12 mph93%29.47 "HgN/A
4:00 am43 °FPartly cloudy.13 mph93%29.47 "HgN/A
3:30 am43 °FPartly cloudy.14 mph100%29.50 "HgN/A
3:00 am43 °FPartly cloudy.12 mph100%29.50 "HgN/A
Weather by CustomWeather, © 2016

See weather overviewHow to use our weather pages